Regional Weather Roundup
Issued by NWS Little Rock, AR

Home | Current Version | Previous Version | Text Only | Print | Product List | Glossary Off
Versions: 1 2 3 4 5 6 7 8 9 10 11 12 13 14 15 16 17 18 19 20 21 22 23 24 25 26 27 28 29 30 31 32 33 34 35 36 37 38 39 40 41 42 43 44 45 46 47 48 49 50

303
ASUS44 KLZK 081105
RWRLZK

WEATHER ROUNDUP FOR ARKANSAS
NATIONAL WEATHER SERVICE LITTLE ROCK AR
500 AM CST MON FEB 08 2016

NOTE: "FAIR" INDICATES FEW OR NO CLOUDS BELOW 12,000 FEET WITH NO
SIGNIFICANT WEATHER AND/OR OBSTRUCTIONS TO VISIBILITY.

ARZ001-003-010-029-081200-
NORTHWEST ARKANSAS

CITY           SKY/WX    TMP DP  RH WIND       PRES   REMARKS
FAYETTEVILLE   CLEAR     34  20  56 W16G25    30.06S WCI  24
FORT SMITH     CLEAR     41  17  38 NW21G28   30.12R
HARRISON       CLEAR     35  20  54 NW15G24   29.96R WCI  25
BENTONVILLE    CLEAR     36  16  44 NW21      30.05R
ROGERS         PTCLDY    34  19  54 NW14G21   30.04S WCI  25
SILOAM SPGS    CLEAR     34  14  44 NW20      30.08R WCI  22
HIGHFILL       FLURRIES  35  20  54 NW16G31   30.04S WCI  25
$$

ARZ004-005-016-081200-
NORTH CENTRAL ARKANSAS

CITY           SKY/WX    TMP DP  RH WIND       PRES   REMARKS
BATESVILLE     PTCLDY    39  19  45 W9        29.95S
FLIPPIN        MOCLDY    39  18  41 W14G21    29.94R
MTN HOME       CLEAR     38  21  50 VRB7G25   29.92F
$$

ARZ040-041-081200-
WEST CENTRAL ARKANSAS

CITY           SKY/WX    TMP DP  RH WIND       PRES   REMARKS
MENA           CLEAR     43  21  42 W14G24    30.09S
MOUNT IDA      CLEAR     42  19  39 VRB7      30.03F
$$

ARZ009-017-025-026-028-081200-
NORTHEAST ARKANSAS

CITY           SKY/WX    TMP DP  RH WIND       PRES   REMARKS
CORNING        FAIR      37  25  60 W12       29.90S
JONESBORO      CLEAR     39  24  55 W9        29.92S
NEWPORT        PTCLDY    40  22  49 W9        29.95F
WALNUT RIDGE   MOCLDY    37  21  52 W8        29.91S
BLYTHEVILLE    PTCLDY    41  24  51 W20G25    29.90R
$$

ARZ022-023-033-042-044-081200-
CENTRAL ARKANSAS

CITY           SKY/WX    TMP DP  RH WIND       PRES   REMARKS
LITTLE ROCK    CLEAR     44  18  35 W13       30.01S
JACKSONVILLE   CLEAR     41  20  42 W8        29.98S
SEARCY         CLEAR     37  21  52 W5        29.98F
HOT SPRINGS    CLEAR     44  22  41 NW12G23   30.04S
RUSSELLVILLE   CLEAR     41  22  46 W10       30.02S
CLINTON        FAIR      41  19  42 W3        29.98S
$$

ARZ036-081200-
EAST ARKANSAS

CITY           SKY/WX    TMP DP  RH WIND       PRES   REMARKS
WEST MEMPHIS   CLEAR     40  26  57 NW7       29.93F
$$

ARZ050-053-066-070-073-081200-
SOUTHWEST ARKANSAS

CITY           SKY/WX    TMP DP  RH WIND       PRES   REMARKS
ARKADELPHIA    FAIR      43  24  47 W9        30.07S
CAMDEN         CLEAR     45  19  36 W7        30.07S
TEXARKANA      CLEAR     44  20  38 NW10      30.13R
EL DORADO      PTCLDY    45  23  42 W9        30.08R
DE QUEEN       CLEAR     44  20  38 NW13      30.14R
$$

ARZ056-057-069-081200-
SOUTHEAST ARKANSAS

CITY           SKY/WX    TMP DP  RH WIND       PRES   REMARKS
PINE BLUFF     CLEAR     44  19  36 W8        30.02S
STUTTGART      CLEAR     43  25  49 W14       29.99F
MONTICELLO     CLEAR     45  24  43 NW8       30.02R

$$






USA.gov is the U.S. government's official web portal to all federal, state and local government web resources and services.